Home   Weather   Reykjavik   Past weeks

Flag for Iceland Past Weather in Reykjavik, Iceland — Yesterday and Last 2 Weeks

Now
54 °F

Fog.


Feels Like: 50 °F
Forecast: N/A
Wind: 12 mph from Northwest

Location: Reykjavik Airport

Current Time: Jul 26, 2017 at 4:52:16 pm

Latest Report: Jul 26, 2017 at 4:00 pm


Visibility: N/A

Pressure: 29.65 "Hg

Humidity: 77%

Dew Point: 46 °F

Location of ReykjavikLocation

Past Weather in Reykjavik — Graph

°F

Reykjavik Temperature Yesterday

Maximum temperature yesterday: 61 °F (at 1:00 pm)
Minimum temperature yesterday: 52 °F (at 1:00 am)
Average temperature yesterday: 56 °F

High & Low Weather Summary for the Past Weeks

 TemperatureHumidityPressure
High63 °F (Jul 24, 11:00 am)94% (Jul 13, 11:00 pm)30.15 "Hg (Jul 13, 11:00 pm)
Low45 °F (Jul 16, 4:00 am)29% (Jul 11, 3:00 pm)29.27 "Hg (Jul 15, 3:33 pm)
Average53 °F78%29.69 "Hg
* Reported Jul 11 3:00 pm — Jul 26 3:00 pm, Reykjavik. Weather by CustomWeather, © 2017

Note: Actual official high and low records may vary slightly from our data, if they occured in-between our weather recording intervals... More about our weather records

Advertising

Reykjavik Weather History for the Previous 24 Hours

Scroll right to see more
 ConditionsComfort  
Time TempWeatherWind HumidityBarometerVisibility
3:00 pm
Wed, Jul 26
52 °FFog.13 mph88%29.65 "Hg5 mi
2:30 pm52 °FPartly sunny.13 mph88%29.65 "HgN/A
2:00 pm52 °FFog.14 mph88%29.65 "Hg0 mi
1:00 pm52 °FCool.10 mph88%29.65 "Hg1 mi
12:28 pm54 °FCool.9 mph82%29.65 "HgN/A
12:00 pm52 °FFog.7 mph88%29.65 "Hg1 mi
11:28 am52 °FFog.7 mph88%29.65 "Hg1 mi
11:00 am54 °FFog.10 mph82%29.65 "HgN/A
10:00 am54 °FPassing clouds.7 mph82%29.65 "HgN/A
9:00 am54 °FFog.7 mph88%29.65 "HgN/A
8:00 am52 °FSunny.2 mph88%29.68 "Hg10 mi
7:00 am52 °FFog.2 mph82%29.68 "HgN/A
6:00 am48 °FFog.2 mph87%29.68 "HgN/A
5:00 am48 °FRain. Fog.5 mph87%29.71 "HgN/A
4:00 am52 °FPassing clouds.5 mph88%29.71 "HgN/A
3:00 am52 °FClear.6 mph88%29.74 "Hg10 mi
2:00 am52 °FPassing clouds.9 mph88%29.77 "HgN/A
1:00 am52 °FPassing clouds.6 mph82%29.77 "HgN/A
12:00 am52 °FPassing clouds.3 mph82%29.80 "HgN/A
11:00 pm
Tue, Jul 25
54 °FPassing clouds.2 mph77%29.80 "HgN/A
10:00 pm55 °FPassing clouds.6 mph72%29.80 "HgN/A
9:00 pm57 °FPassing clouds.8 mph72%29.83 "HgN/A
8:00 pm59 °FPassing clouds.9 mph68%29.83 "HgN/A
7:00 pm59 °FPassing clouds.12 mph63%29.86 "HgN/A
6:00 pm59 °FScattered clouds.17 mph68%29.89 "HgN/A
5:00 pm61 °FPassing clouds.16 mph59%29.89 "HgN/A
4:00 pm61 °FScattered clouds.17 mph59%29.92 "HgN/A
Weather by CustomWeather, © 2017

See weather overviewHow to use our weather pages